| time (UTC) | temp F | wind direction | speed MPH | gust MPH | rain 1hr in | rain 24hr in | rain mn in | humidity % | barometer mb |
| 20260504225607 | 56 | 185 | 0.0 | 0.0 | 0.00 | 0.06 | 0.00 | 97 | 1008.4 |
| 20260504225032 | 56 | 185 | 0.0 | 0.0 | 0.00 | 0.06 | 0.00 | 97 | 1008.5 |
| 20260504224536 | 56 | 185 | 0.0 | 0.0 | 0.00 | 0.06 | 0.00 | 97 | 1008.5 |
| 20260504224034 | 56 | 185 | 0.0 | 0.0 | 0.00 | 0.06 | 0.00 | 97 | 1008.6 |
| 20260504223531 | 56 | 185 | 0.0 | 0.0 | 0.00 | 0.06 | 0.00 | 97 | 1008.6 |
| 20260504223252 | 56 | 185 | 0.0 | 0.0 | 0.00 | 0.06 | 0.00 | 97 | 1008.7 |
| 20260504222745 | 56 | 185 | 0.0 | 0.0 | 0.00 | 0.06 | 0.00 | 97 | 1008.7 |
| 20260504222238 | 56 | 185 | 0.0 | 0.0 | 0.00 | 0.06 | 0.00 | 97 | 1008.8 |
| 20260504221432 | 56 | 185 | 0.0 | 0.0 | 0.00 | 0.06 | 0.00 | 97 | 1008.8 |
| 20260504220932 | 56 | 185 | 0.0 | 0.0 | 0.00 | 0.06 | 0.00 | 97 | 1008.9 |
| 20260504220422 | 56 | 185 | 0.0 | 0.0 | 0.00 | 0.06 | 0.00 | 97 | 1008.9 |
| 20260504215921 | 56 | 185 | 0.0 | 0.0 | 0.00 | 0.06 | 0.06 | 97 | 1008.9 |
| 20260504215404 | 56 | 185 | 0.0 | 0.0 | 0.00 | 0.06 | 0.06 | 97 | 1008.9 |
| 20260504214903 | 56 | 185 | 0.0 | 0.0 | 0.00 | 0.06 | 0.06 | 97 | 1009.0 |
| 20260504214622 | 56 | 185 | 0.0 | 0.0 | 0.00 | 0.06 | 0.06 | 97 | 1009.0 |
| 20260504213902 | 56 | 185 | 0.0 | 0.0 | 0.00 | 0.06 | 0.06 | 97 | 1009.0 |
| 20260504213405 | 56 | 185 | 0.0 | 0.0 | 0.00 | 0.06 | 0.06 | 97 | 1009.0 |
| 20260504212902 | 56 | 185 | 0.0 | 0.0 | 0.00 | 0.06 | 0.06 | 97 | 1009.1 |
| 20260504212403 | 56 | 185 | 0.0 | 0.0 | 0.00 | 0.06 | 0.06 | 97 | 1009.1 |
| 20260504211833 | 57 | 185 | 0.0 | 0.0 | 0.00 | 0.06 | 0.06 | 97 | 1009.1 |
| 20260504211331 | 57 | 185 | 0.0 | 0.0 | 0.00 | 0.06 | 0.06 | 97 | 1009.2 |
| 20260504210831 | 57 | 185 | 0.0 | 0.0 | 0.00 | 0.06 | 0.06 | 97 | 1009.2 |
| 20260504210328 | 57 | 185 | 0.0 | 0.0 | 0.00 | 0.06 | 0.06 | 97 | 1009.2 |
| 20260504205825 | 57 | 185 | 0.0 | 0.0 | 0.00 | 0.06 | 0.06 | 97 | 1009.2 |
| 20260504205323 | 57 | 185 | 0.0 | 0.0 | 0.00 | 0.06 | 0.06 | 97 | 1009.2 |
| 20260504204804 | 57 | 185 | 0.0 | 0.0 | 0.00 | 0.06 | 0.06 | 97 | 1009.3 |
| 20260504204302 | 57 | 185 | 0.0 | 0.0 | 0.00 | 0.06 | 0.06 | 97 | 1009.3 |
| 20260504203802 | 57 | 185 | 0.0 | 0.0 | 0.00 | 0.06 | 0.06 | 97 | 1009.3 |
| 20260504203745 | 57 | 185 | 0.0 | 0.0 | 0.00 | 0.06 | 0.06 | 97 | 1009.3 |
| 20260504202804 | 57 | 185 | 0.0 | 0.0 | 0.00 | 0.06 | 0.06 | 97 | 1009.3 |
| 20260504202232 | 57 | 185 | 0.0 | 0.0 | 0.00 | 0.06 | 0.06 | 96 | 1009.4 |
| 20260504201950 | 57 | 185 | 0.0 | 0.0 | 0.00 | 0.06 | 0.06 | 96 | 1009.4 |
| 20260504201203 | 57 | 185 | 0.0 | 0.0 | 0.00 | 0.06 | 0.06 | 96 | 1009.4 |
| 20260504200923 | 58 | 185 | 0.0 | 0.0 | 0.00 | 0.06 | 0.06 | 96 | 1009.4 |
| 20260504200144 | 58 | 185 | 0.0 | 0.0 | 0.00 | 0.06 | 0.06 | 96 | 1009.3 |
| 20260504195643 | 58 | 185 | 0.0 | 0.0 | 0.00 | 0.06 | 0.06 | 96 | 1009.3 |
| 20260504195136 | 58 | 185 | 0.0 | 0.0 | 0.00 | 0.06 | 0.06 | 96 | 1009.3 |
| 20260504195120 | 58 | 185 | 0.0 | 0.0 | 0.00 | 0.06 | 0.06 | 96 | 1009.3 |
| 20260504194130 | 58 | 185 | 0.0 | 0.0 | 0.00 | 0.06 | 0.06 | 96 | 1009.2 |
| 20260504193631 | 58 | 185 | 0.0 | 0.0 | 0.00 | 0.06 | 0.06 | 96 | 1009.3 |
| 20260504193132 | 58 | 185 | 0.0 | 0.0 | 0.00 | 0.06 | 0.06 | 96 | 1009.3 |
| 20260504192829 | 58 | 185 | 0.0 | 0.0 | 0.00 | 0.06 | 0.06 | 96 | 1009.3 |
| 20260504192102 | 58 | 185 | 0.0 | 0.0 | 0.00 | 0.06 | 0.06 | 96 | 1009.2 |
| 20260504191609 | 58 | 185 | 0.0 | 0.0 | 0.00 | 0.06 | 0.06 | 96 | 1009.2 |
| 20260504191102 | 58 | 185 | 0.0 | 0.0 | 0.00 | 0.06 | 0.06 | 96 | 1009.1 |
| 20260504190537 | 58 | 185 | 0.0 | 0.0 | 0.00 | 0.06 | 0.06 | 96 | 1009.1 |
| 20260504190032 | 58 | 185 | 0.0 | 0.0 | 0.00 | 0.06 | 0.06 | 96 | 1009.0 |
| 20260504185531 | 58 | 185 | 0.0 | 0.0 | 0.00 | 0.06 | 0.06 | 96 | 1009.0 |
| 20260504185021 | 58 | 185 | 0.0 | 0.0 | 0.00 | 0.06 | 0.06 | 96 | 1009.0 |
| 20260504184519 | 58 | 185 | 0.0 | 0.0 | 0.00 | 0.06 | 0.06 | 96 | 1009.0 |
| 20260504184015 | 59 | 185 | 0.0 | 0.0 | 0.00 | 0.06 | 0.06 | 96 | 1008.9 |
| 20260504183502 | 59 | 185 | 0.0 | 0.0 | 0.00 | 0.06 | 0.06 | 96 | 1009.0 |
| 20260504183231 | 59 | 185 | 0.0 | 1.0 | 0.00 | 0.06 | 0.06 | 96 | 1009.0 |
| 20260504182431 | 59 | 185 | 0.0 | 1.0 | 0.00 | 0.06 | 0.06 | 96 | 1008.9 |
| 20260504181925 | 59 | 185 | 0.0 | 0.0 | 0.00 | 0.06 | 0.06 | 96 | 1008.9 |
| 20260504181405 | 59 | 185 | 0.0 | 0.0 | 0.00 | 0.06 | 0.06 | 96 | 1008.9 |
| 20260504180832 | 59 | 185 | 0.0 | 0.0 | 0.00 | 0.06 | 0.06 | 96 | 1008.9 |
| 20260504180327 | 59 | 185 | 0.0 | 0.0 | 0.01 | 0.06 | 0.06 | 95 | 1008.9 |
| 20260504175804 | 59 | 185 | 0.0 | 0.0 | 0.01 | 0.06 | 0.06 | 96 | 1008.9 |
| 20260504175304 | 59 | 185 | 0.0 | 0.0 | 0.01 | 0.06 | 0.06 | 96 | 1009.0 |
| 20260504174803 | 59 | 185 | 0.0 | 0.0 | 0.01 | 0.06 | 0.06 | 95 | 1009.0 |
| 20260504174231 | 59 | 185 | 0.0 | 0.0 | 0.01 | 0.06 | 0.06 | 95 | 1009.0 |
| 20260504173730 | 59 | 185 | 0.0 | 0.0 | 0.01 | 0.06 | 0.06 | 95 | 1009.1 |
| 20260504173232 | 59 | 185 | 0.0 | 0.0 | 0.01 | 0.06 | 0.06 | 94 | 1009.2 |
| 20260504172734 | 59 | 185 | 0.0 | 0.0 | 0.01 | 0.06 | 0.06 | 94 | 1009.2 |
| 20260504172452 | 59 | 185 | 0.0 | 0.0 | 0.01 | 0.06 | 0.06 | 94 | 1009.2 |
| 20260504171731 | 59 | 185 | 0.0 | 0.0 | 0.01 | 0.06 | 0.06 | 94 | 1009.2 |
| 20260504171230 | 59 | 185 | 0.0 | 0.0 | 0.01 | 0.06 | 0.06 | 94 | 1009.2 |
| 20260504170730 | 59 | 185 | 0.0 | 1.0 | 0.01 | 0.06 | 0.06 | 94 | 1009.2 |
| 20260504170449 | 59 | 165 | 0.0 | 1.0 | 0.01 | 0.06 | 0.06 | 93 | 1009.2 |
| 20260504150700 | 64 | 207 | 0.0 | 1.0 | 0.00 | 0.01 | 0.01 | 85 | 1009.4 |
| 20260504141238 | 65 | 269 | 2.0 | 5.0 | 0.00 | 0.02 | 0.01 | 77 | 1009.7 |
| 20260504140737 | 66 | 307 | 1.0 | 5.0 | 0.00 | 0.02 | 0.01 | 77 | 1009.7 |
| 20260504140228 | 66 | 195 | 0.0 | 1.0 | 0.00 | 0.02 | 0.01 | 79 | 1009.8 |
| 20260504130632 | 64 | 252 | 1.0 | 3.0 | 0.00 | 0.05 | 0.01 | 79 | 1009.9 |
| 20260504130131 | 64 | 293 | 1.0 | 4.0 | 0.00 | 0.05 | 0.01 | 80 | 1009.9 |
| 20260504110316 | 64 | 271 | 1.0 | 3.0 | 0.00 | 0.06 | 0.01 | 80 | 1010.2 |
| 20260504100132 | 64 | 300 | 1.0 | 5.0 | 0.00 | 0.06 | 0.01 | 80 | 1010.3 |
| 20260504081954 | 63 | 277 | 1.0 | 4.0 | 0.00 | 0.06 | 0.01 | 83 | 1010.1 |
| 20260504081231 | 63 | 285 | 1.0 | 3.0 | 0.00 | 0.06 | 0.01 | 84 | 1010.1 |
| 20260504080732 | 62 | 278 | 2.0 | 4.0 | 0.00 | 0.06 | 0.01 | 85 | 1010.1 |
| 20260504080224 | 62 | 279 | 2.0 | 4.0 | 0.00 | 0.06 | 0.01 | 84 | 1010.1 |
| 20260504050741 | 50 | 268 | 0.0 | 0.0 | 0.00 | 0.06 | 0.01 | 97 | 1009.2 |
| 20260504050232 | 50 | 268 | 0.0 | 0.0 | 0.00 | 0.06 | 0.01 | 97 | 1009.1 |
| 20260504045731 | 50 | 268 | 0.0 | 0.0 | 0.00 | 0.06 | 0.01 | 97 | 1009.1 |
| 20260504045230 | 50 | 268 | 0.0 | 0.0 | 0.00 | 0.06 | 0.01 | 97 | 1009.1 |
| 20260504044732 | 50 | 268 | 0.0 | 0.0 | 0.00 | 0.06 | 0.01 | 97 | 1009.1 |
| 20260504044231 | 50 | 268 | 0.0 | 0.0 | 0.00 | 0.06 | 0.01 | 97 | 1009.0 |
| 20260504043731 | 50 | 268 | 0.0 | 1.0 | 0.00 | 0.06 | 0.01 | 97 | 1009.1 |
| 20260504043232 | 50 | 268 | 0.0 | 1.0 | 0.01 | 0.06 | 0.01 | 97 | 1009.0 |
| 20260504042731 | 50 | 268 | 0.0 | 1.0 | 0.01 | 0.06 | 0.01 | 97 | 1009.0 |
| 20260504042236 | 50 | 268 | 0.0 | 1.0 | 0.01 | 0.06 | 0.01 | 97 | 1009.0 |
| 20260504041730 | 50 | 268 | 0.0 | 0.0 | 0.01 | 0.06 | 0.01 | 97 | 1009.0 |
| 20260504041435 | 50 | 268 | 0.0 | 0.0 | 0.01 | 0.06 | 0.01 | 97 | 1009.0 |
| 20260504040709 | 50 | 268 | 0.0 | 0.0 | 0.01 | 0.06 | 0.01 | 97 | 1009.0 |
| 20260504040144 | 50 | 268 | 0.0 | 0.0 | 0.01 | 0.06 | 0.01 | 97 | 1009.0 |
| 20260504035640 | 50 | 268 | 0.0 | 0.0 | 0.01 | 0.06 | 0.01 | 97 | 1009.0 |
| 20260504035138 | 49 | 268 | 0.0 | 0.0 | 0.01 | 0.06 | 0.01 | 96 | 1009.1 |
| 20260504034636 | 49 | 268 | 0.0 | 0.0 | 0.01 | 0.06 | 0.01 | 96 | 1009.0 |
| 20260504034356 | 49 | 268 | 0.0 | 1.0 | 0.01 | 0.06 | 0.01 | 96 | 1009.0 |
| 20260504033631 | 49 | 268 | 0.0 | 1.0 | 0.01 | 0.06 | 0.01 | 96 | 1009.0 |
| 20260504033131 | 49 | 268 | 0.0 | 0.0 | 0.00 | 0.05 | 0.00 | 96 | 1009.1 |
| 20260504032603 | 49 | 268 | 0.0 | 0.0 | 0.00 | 0.05 | 0.00 | 96 | 1009.0 |
| 20260504032102 | 49 | 268 | 0.0 | 0.0 | 0.00 | 0.05 | 0.00 | 96 | 1008.9 |
| 20260504031530 | 50 | 268 | 0.0 | 0.0 | 0.00 | 0.05 | 0.00 | 96 | 1008.8 |
| 20260504031031 | 50 | 268 | 0.0 | 0.0 | 0.00 | 0.05 | 0.00 | 96 | 1008.9 |
| 20260504030503 | 50 | 268 | 0.0 | 0.0 | 0.00 | 0.05 | 0.00 | 96 | 1008.8 |
| 20260504025931 | 50 | 268 | 0.0 | 0.0 | 0.00 | 0.05 | 0.00 | 96 | 1008.8 |
| 20260504025432 | 50 | 268 | 0.0 | 0.0 | 0.00 | 0.05 | 0.00 | 96 | 1008.9 |
| 20260504024930 | 50 | 268 | 0.0 | 0.0 | 0.00 | 0.05 | 0.00 | 96 | 1008.9 |
| 20260504024426 | 50 | 268 | 0.0 | 0.0 | 0.00 | 0.05 | 0.00 | 96 | 1008.9 |
| 20260504023924 | 50 | 268 | 0.0 | 0.0 | 0.00 | 0.05 | 0.00 | 96 | 1008.9 |
| 20260504023412 | 51 | 268 | 0.0 | 0.0 | 0.00 | 0.05 | 0.00 | 96 | 1008.9 |
| 20260504022904 | 51 | 268 | 0.0 | 0.0 | 0.00 | 0.05 | 0.00 | 96 | 1008.9 |
| 20260504022404 | 51 | 268 | 0.0 | 0.0 | 0.00 | 0.05 | 0.00 | 96 | 1008.9 |
| 20260504021903 | 51 | 268 | 0.0 | 0.0 | 0.00 | 0.05 | 0.00 | 96 | 1008.8 |
| 20260504021402 | 51 | 268 | 0.0 | 0.0 | 0.00 | 0.05 | 0.00 | 96 | 1008.8 |
| 20260504020834 | 51 | 268 | 0.0 | 0.0 | 0.00 | 0.05 | 0.00 | 96 | 1008.8 |
| 20260504020332 | 51 | 268 | 0.0 | 0.0 | 0.00 | 0.05 | 0.00 | 96 | 1008.8 |
| 20260504015825 | 51 | 268 | 0.0 | 0.0 | 0.00 | 0.05 | 0.00 | 96 | 1008.8 |
| 20260504015305 | 51 | 268 | 0.0 | 0.0 | 0.00 | 0.05 | 0.00 | 96 | 1008.8 |
| 20260504014804 | 51 | 268 | 0.0 | 0.0 | 0.00 | 0.05 | 0.00 | 96 | 1008.9 |
| 20260504014232 | 51 | 268 | 0.0 | 0.0 | 0.00 | 0.05 | 0.00 | 95 | 1008.8 |
| 20260504013732 | 51 | 268 | 0.0 | 0.0 | 0.00 | 0.05 | 0.00 | 95 | 1008.8 |
| 20260504013223 | 51 | 268 | 0.0 | 0.0 | 0.00 | 0.05 | 0.00 | 95 | 1008.9 |
| 20260504012713 | 52 | 268 | 0.0 | 0.0 | 0.00 | 0.05 | 0.00 | 96 | 1008.9 |
| 20260504012204 | 52 | 268 | 0.0 | 0.0 | 0.00 | 0.05 | 0.00 | 96 | 1008.9 |
| 20260504011705 | 52 | 268 | 0.0 | 0.0 | 0.00 | 0.05 | 0.00 | 96 | 1008.9 |
| 20260504011141 | 52 | 268 | 0.0 | 0.0 | 0.00 | 0.05 | 0.00 | 96 | 1008.8 |
| 20260504010630 | 52 | 268 | 0.0 | 0.0 | 0.00 | 0.05 | 0.00 | 95 | 1008.8 |
| 20260504010350 | 51 | 268 | 0.0 | 0.0 | 0.00 | 0.05 | 0.00 | 95 | 1008.9 |
| 20260504010058 | 51 | 268 | 0.0 | 0.0 | 0.00 | 0.05 | 0.00 | 95 | 1008.9 |
| 20260504005455 | 52 | 268 | 0.0 | 0.0 | 0.00 | 0.05 | 0.00 | 94 | 1008.8 |
| 20260504005215 | 51 | 268 | 0.0 | 0.0 | 0.00 | 0.05 | 0.00 | 95 | 1008.9 |
| 20260504004727 | 52 | 268 | 0.0 | 0.0 | 0.00 | 0.05 | 0.00 | 94 | 1008.9 |
| 20260504003503 | 52 | 268 | 0.0 | 0.0 | 0.00 | 0.05 | 0.00 | 94 | 1008.9 |
| 20260504003219 | 52 | 268 | 0.0 | 0.0 | 0.00 | 0.05 | 0.00 | 94 | 1008.8 |
| 20260504002442 | 52 | 268 | 0.0 | 0.0 | 0.00 | 0.05 | 0.00 | 94 | 1008.8 |
| 20260504001932 | 52 | 268 | 0.0 | 0.0 | 0.00 | 0.05 | 0.00 | 94 | 1008.8 |
| 20260504001432 | 52 | 268 | 0.0 | 0.0 | 0.00 | 0.05 | 0.00 | 94 | 1008.8 |
| 20260504001154 | 53 | 268 | 0.0 | 0.0 | 0.00 | 0.05 | 0.00 | 94 | 1008.8 |
| 20260504000431 | 53 | 268 | 0.0 | 0.0 | 0.00 | 0.05 | 0.00 | 94 | 1008.9 |
| 20260504000152 | 53 | 268 | 0.0 | 0.0 | 0.00 | 0.05 | 0.00 | 94 | 1008.9 |
| 20260503235429 | 53 | 268 | 0.0 | 0.0 | 0.00 | 0.05 | 0.00 | 94 | 1008.9 |
| 20260503234930 | 53 | 268 | 0.0 | 0.0 | 0.00 | 0.05 | 0.00 | 93 | 1008.9 |
| 20260503234430 | 53 | 268 | 0.0 | 0.0 | 0.00 | 0.05 | 0.00 | 94 | 1008.9 |
| 20260503233931 | 53 | 268 | 0.0 | 0.0 | 0.00 | 0.05 | 0.00 | 93 | 1008.9 |
| 20260503233428 | 53 | 268 | 0.0 | 0.0 | 0.00 | 0.05 | 0.00 | 93 | 1008.9 |
| 20260503232923 | 53 | 268 | 0.0 | 0.0 | 0.00 | 0.05 | 0.00 | 93 | 1009.0 |
| 20260503232403 | 54 | 268 | 0.0 | 0.0 | 0.00 | 0.05 | 0.00 | 93 | 1008.9 |
| 20260503231902 | 54 | 268 | 0.0 | 0.0 | 0.00 | 0.05 | 0.00 | 93 | 1009.0 |
| 20260503231331 | 54 | 268 | 0.0 | 0.0 | 0.00 | 0.05 | 0.00 | 93 | 1009.0 |
| 20260503230830 | 54 | 268 | 0.0 | 0.0 | 0.00 | 0.05 | 0.00 | 93 | 1008.9 |
| 20260503230332 | 54 | 268 | 0.0 | 0.0 | 0.00 | 0.05 | 0.00 | 92 | 1008.9 |